Saginaw Browne, MI

6:41 AM EDT on March 28, 2017 (GMT -0400)
Saginaw County-Browne

Weather History for KHYX - December, 2012

Change the Weather History Date:

Wednesday, December 26, 2012

  Actual Average (KMBS) Record (KMBS)
Temperature  
Mean Temperature 28 °F -  
Max Temperature 30 °F 29 °F 54 °F (2016)
Min Temperature 26 °F 16 °F 1 °F (2000)
Degree Days  
Heating Degree Days 37    
Moisture  
Dew Point 26 °F    
Average Humidity 84    
Maximum Humidity 100    
Minimum Humidity 75    
Precipitation  
Precipitation 0.00 in - - ()
Sea Level Pressure  
Sea Level Pressure 30.07 in    
Wind  
Wind Speed 15 mph (NE)    
Max Wind Speed 30 mph    
Max Gust Speed 38 mph    
Visibility 8 miles    
Events Snow    
Averages and records for this station are not official NWS values.
T = Trace of Precipitation, MM = Missing Value Source: NWS Daily Summary

Daily Weather History Graph

Daily Weather History Graph

Search for Another Location

Airport or City:

Trip Planner

Search our weather history database for the weather conditions in past years. The results will help you decide how hot, cold, wet, or windy it might be!

Date:

Astronomy

Dec. 26, 2012 Rise Set
Actual Time 8:07 AM EST 5:05 PM EST
Civil Twilight 7:34 AM EST 5:38 PM EST
Nautical Twilight 6:58 AM EST 6:14 PM EST
Astronomical Twilight 6:23 AM EST 6:49 PM EST
Moon 3:59 PM EST (12/26) 6:29 AM EST (12/26)
Length of Visible Light 10h 03m
Length of Day
8h 58m
Waxing Gibbous, 97% of the Moon is Illuminated
Dec 26
Waxing Gibbous
Dec 28
Full
Jan 4
Last Quarter
Jan 11
New
Jan 18
First Quarter

Hourly Weather History & Observations

Time (EST) Temp. Windchill Dew Point Humidity Pressure Visibility Wind Dir Wind Speed Gust Speed Precip Events Conditions
12:12 AM 30.2 °F 20.2 °F 24.8 °F 80% 30.30 in 10.0 mi NNE 12.7 mph - N/A   Overcast
12:32 AM 30.2 °F 21.3 °F 24.8 °F 80% 30.29 in 10.0 mi NE 10.4 mph - N/A   Overcast
12:52 AM 30.2 °F 21.3 °F 26.6 °F 86% 30.29 in 10.0 mi NNE 10.4 mph - N/A   Overcast
1:12 AM 30.2 °F 21.9 °F 24.8 °F 80% 30.29 in 10.0 mi NE 9.2 mph - N/A   Overcast
1:32 AM 30.2 °F 22.6 °F 24.8 °F 80% 30.28 in 10.0 mi NE 8.1 mph - N/A   Overcast
1:53 AM 30.2 °F 21.3 °F 23.0 °F 75% 30.28 in 10.0 mi ENE 10.4 mph - N/A   Overcast
2:13 AM 30.2 °F 20.2 °F 23.0 °F 75% 30.27 in 10.0 mi ENE 12.7 mph - N/A   Overcast
2:33 AM 30.2 °F 21.3 °F 23.0 °F 75% 30.26 in 10.0 mi NE 10.4 mph - N/A   Overcast
2:53 AM 30.2 °F 23.4 °F 24.8 °F 80% 30.28 in 10.0 mi NE 6.9 mph - N/A   Overcast
3:13 AM 30.2 °F 20.2 °F 23.0 °F 75% 30.27 in 10.0 mi ENE 12.7 mph 18.4 mph N/A   Overcast
3:33 AM 30.2 °F 19.8 °F 23.0 °F 75% 30.26 in 10.0 mi ENE 13.8 mph - N/A   Overcast
3:53 AM 30.2 °F 19.3 °F 23.0 °F 75% 30.25 in 10.0 mi ENE 15.0 mph - N/A   Overcast
4:13 AM 30.2 °F 20.2 °F 23.0 °F 75% 30.23 in 10.0 mi NE 12.7 mph - N/A   Overcast
4:33 AM 30.2 °F 19.8 °F 23.0 °F 75% 30.21 in 10.0 mi NE 13.8 mph - N/A   Overcast
4:53 AM 28.4 °F 18.5 °F 23.0 °F 80% 30.19 in 10.0 mi NE 11.5 mph - N/A   Overcast
5:13 AM 30.2 °F 19.8 °F 23.0 °F 75% 30.18 in 10.0 mi NE 13.8 mph - N/A   Overcast
5:34 AM 30.2 °F 18.9 °F 23.0 °F 75% 30.18 in 10.0 mi NE 16.1 mph - N/A   Overcast
6:14 AM 30.2 °F 19.8 °F 23.0 °F 75% 30.17 in 10.0 mi NE 13.8 mph - N/A   Overcast
6:31 AM 30.2 °F 19.3 °F 24.8 °F 80% 30.17 in 10.0 mi NE 15.0 mph - N/A   Overcast
6:51 AM 30.2 °F 19.3 °F 24.8 °F 80% 30.17 in 10.0 mi NE 15.0 mph - N/A   Overcast
7:11 AM 30.2 °F 19.8 °F 26.6 °F 86% 30.17 in 10.0 mi NE 13.8 mph - N/A   Overcast
7:31 AM 30.2 °F 20.2 °F 26.6 °F 86% 30.16 in 10.0 mi NE 12.7 mph - N/A   Overcast
7:52 AM 30.2 °F 20.2 °F 26.6 °F 86% 30.15 in 10.0 mi NE 12.7 mph - N/A   Overcast
8:12 AM 30.2 °F 20.2 °F 26.6 °F 86% 30.15 in 10.0 mi NE 12.7 mph - N/A   Overcast
8:32 AM 30.2 °F 19.8 °F 26.6 °F 86% 30.14 in 10.0 mi NE 13.8 mph - N/A   Overcast
8:52 AM 30.2 °F 19.3 °F 26.6 °F 86% 30.13 in 10.0 mi NE 15.0 mph - N/A   Overcast
9:12 AM 30.2 °F 18.1 °F 26.6 °F 86% 30.13 in 10.0 mi NE 18.4 mph 23.0 mph N/A   Overcast
9:32 AM 30.2 °F 19.3 °F 26.6 °F 86% 30.12 in 10.0 mi NE 15.0 mph 23.0 mph N/A   Overcast
9:52 AM 30.2 °F 19.3 °F 26.6 °F 86% 30.11 in 10.0 mi NE 15.0 mph - N/A   Overcast
10:12 AM 30.2 °F 18.5 °F 24.8 °F 80% 30.11 in 10.0 mi ENE 17.3 mph 24.2 mph N/A   Overcast
10:32 AM 30.2 °F 18.1 °F 24.8 °F 80% 30.10 in 10.0 mi NE 18.4 mph 26.5 mph N/A   Overcast
10:52 AM 30.2 °F 18.5 °F 24.8 °F 80% 30.09 in 10.0 mi NE 17.3 mph - N/A   Overcast
11:13 AM 30.2 °F 18.5 °F 26.6 °F 86% 30.06 in 10.0 mi NE 17.3 mph 21.9 mph N/A   Overcast
11:33 AM 30.2 °F 17.8 °F 24.8 °F 80% 30.05 in 10.0 mi NE 19.6 mph 27.6 mph N/A   Overcast
11:53 AM 30.2 °F 17.1 °F 24.8 °F 80% 30.04 in 10.0 mi NE 21.9 mph 28.8 mph N/A   Overcast
12:13 PM 30.2 °F 17.1 °F 24.8 °F 80% 30.03 in 10.0 mi NE 21.9 mph 28.8 mph N/A   Overcast
12:33 PM 30.2 °F 16.8 °F 24.8 °F 80% 30.02 in 10.0 mi NE 23.0 mph 28.8 mph N/A   Overcast
12:53 PM 30.2 °F 18.1 °F 24.8 °F 80% 30.01 in 10.0 mi NE 18.4 mph 28.8 mph N/A   Overcast
1:13 PM 30.2 °F 18.1 °F 24.8 °F 80% 30.00 in 10.0 mi NE 18.4 mph 25.3 mph N/A   Overcast
1:33 PM 30.2 °F 17.4 °F 24.8 °F 80% 30.00 in 10.0 mi NE 20.7 mph 28.8 mph N/A   Overcast
1:53 PM 30.2 °F 16.8 °F 24.8 °F 80% 30.00 in 10.0 mi NE 23.0 mph 26.5 mph N/A   Overcast
2:13 PM 30.2 °F 17.8 °F 24.8 °F 80% 29.99 in 10.0 mi NE 19.6 mph 26.5 mph N/A   Overcast
2:34 PM 30.2 °F 18.9 °F 24.8 °F 80% 29.99 in 10.0 mi NE 16.1 mph - N/A   Overcast
2:54 PM 30.2 °F 16.8 °F 23.0 °F 75% 29.98 in 10.0 mi NE 23.0 mph 29.9 mph N/A   Overcast
3:14 PM 30.2 °F 17.4 °F 24.8 °F 80% 29.98 in 10.0 mi NE 20.7 mph 31.1 mph N/A   Overcast
3:34 PM 30.2 °F 17.1 °F 24.8 °F 80% 29.99 in 10.0 mi NE 21.9 mph 28.8 mph N/A   Overcast
3:54 PM 30.2 °F 17.8 °F 24.8 °F 80% 29.99 in 10.0 mi NE 19.6 mph 26.5 mph N/A   Overcast
4:14 PM 30.2 °F 17.1 °F 24.8 °F 80% 29.97 in 10.0 mi NE 21.9 mph 29.9 mph N/A   Overcast
4:34 PM 30.2 °F 17.1 °F 26.6 °F 86% 29.96 in 10.0 mi NE 21.9 mph 31.1 mph N/A   Overcast
4:54 PM 30.2 °F 16.2 °F 26.6 °F 86% 29.96 in 10.0 mi NNE 25.3 mph 31.1 mph N/A   Overcast
5:14 PM 30.2 °F 16.2 °F 24.8 °F 80% 29.96 in 10.0 mi NE 25.3 mph 32.2 mph N/A   Overcast
5:35 PM 30.2 °F 15.9 °F 26.6 °F 86% 29.95 in 7.0 mi NE 26.5 mph 35.7 mph N/A Snow Light Snow
5:55 PM 30.2 °F 17.1 °F 26.6 °F 86% 29.95 in 5.0 mi NNE 21.9 mph 31.1 mph N/A Snow Light Snow
6:15 PM 30.2 °F 15.9 °F 26.6 °F 86% 29.94 in 5.0 mi NNE 26.5 mph 33.4 mph N/A Snow Light Snow
6:35 PM 30.2 °F 15.2 °F 26.6 °F 86% 29.94 in 10.0 mi NNE 29.9 mph 35.7 mph N/A Snow Light Snow
6:55 PM 30.2 °F 16.5 °F 26.6 °F 86% 29.94 in 10.0 mi NNE 24.2 mph 35.7 mph N/A Snow Light Snow
7:15 PM 30.2 °F 17.4 °F 26.6 °F 86% 29.94 in 2.0 mi NNE 20.7 mph 38.0 mph N/A Snow Light Snow
7:35 PM 30.2 °F 16.8 °F 26.6 °F 86% 29.95 in 1.5 mi NNE 23.0 mph 32.2 mph N/A Snow Light Snow
7:55 PM 30.2 °F 16.5 °F 28.4 °F 93% 29.95 in 2.0 mi NNE 24.2 mph 31.1 mph N/A Snow Light Snow
8:15 PM 30.2 °F 16.8 °F 28.4 °F 93% 29.95 in 7.0 mi NNE 23.0 mph 29.9 mph N/A Snow Light Snow
8:30 PM 30.2 °F 17.4 °F 28.4 °F 93% 29.95 in 7.0 mi NNE 20.7 mph 31.1 mph N/A Snow Light Snow
8:51 PM 30.2 °F 17.4 °F 28.4 °F 93% 29.95 in 1.8 mi NNE 20.7 mph 29.9 mph N/A Snow Light Snow
9:11 PM 30.2 °F 17.4 °F 28.4 °F 93% 29.94 in 2.0 mi NNE 20.7 mph 28.8 mph N/A Snow Light Snow
9:31 PM 30.2 °F 17.1 °F 28.4 °F 93% 29.94 in 3.0 mi NNE 21.9 mph 31.1 mph N/A Snow Light Snow
9:51 PM 30.2 °F 17.4 °F 28.4 °F 93% 29.94 in 5.0 mi NNE 20.7 mph 29.9 mph N/A Snow Light Snow
10:11 PM 30.2 °F 18.1 °F 28.4 °F 93% 29.94 in 4.0 mi North 18.4 mph 26.5 mph N/A Snow Light Snow
10:31 PM 28.4 °F 15.4 °F 26.6 °F 93% 29.93 in 1.5 mi North 19.6 mph 27.6 mph N/A Snow Light Snow
10:51 PM 28.4 °F 15.8 °F 26.6 °F 93% 29.95 in 1.0 mi North 18.4 mph 25.3 mph N/A Snow Snow
11:11 PM 28.4 °F 16.6 °F 28.4 °F 100% 29.95 in 1.0 mi North 16.1 mph 25.3 mph N/A Snow Snow
11:31 PM 26.6 °F 14.7 °F 26.6 °F 100% 29.95 in 1.2 mi North 15.0 mph 23.0 mph N/A Snow Light Snow
11:51 PM 26.6 °F 13.4 °F 26.6 °F 100% 29.94 in 1.5 mi North 18.4 mph 24.2 mph N/A Snow Light Snow